When you browse on this site, cookies collect data to enhance your experience and personalize the content and advertising you see.
Visit our Privacy Policy to learn more. By continuing to use the site, you agree to this use of cookies and data.
  • în România
  • Lista ţărilor
  • Pe 7 zile
  • Temperatura apei
  • Meteo pe hartă
  • Widget-uri
  • user-avatar
    Intrare

    Meteo pe oră la Abancay

    Astăzi, 28 Mai, Joi

    Timp Temperatura Precipitaţii Vânt Presiune Umiditate
    00:00 +8°C° 0 mm 0 m/s 542 mmHg 79%
    01:00 +8°C° 0 mm 0 m/s 542 mmHg 82%
    02:00 +9°C° 0 mm 1 m/s 542 mmHg 81%
    03:00 +8°C° 0 mm 1 m/s 542 mmHg 80%
    04:00 +8°C° 0 mm 1 m/s 542 mmHg 79%
    05:00 +9°C° 0 mm 1 m/s 542 mmHg 77%
    06:00 +10°C° 0 mm 1 m/s 543 mmHg 75%
    07:00 +10°C° 0 mm 1 m/s 544 mmHg 73%
    08:00 +13°C° 0 mm 1 m/s 545 mmHg 66%
    09:00 +15°C° 0 mm 1 m/s 546 mmHg 58%
    10:00 +19°C° 0 mm 1 m/s 547 mmHg 51%
    11:00 +20°C° 0 mm 1 m/s 547 mmHg 48%
    12:00 +20°C° 0 mm 2 m/s 546 mmHg 45%
    13:00 +21°C° 0 mm 2 m/s 546 mmHg 42%
    14:00 +20°C° 0 mm 2 m/s 545 mmHg 44%
    15:00 +20°C° 0 mm 3 m/s 545 mmHg 46%
    16:00 +19°C° 0 mm 3 m/s 545 mmHg 48%
    17:00 +17°C° 0 mm 2 m/s 544 mmHg 58%
    18:00 +14°C° 0 mm 2 m/s 543 mmHg 67%
    19:00 +12°C° 0 mm 1 m/s 542 mmHg 77%
    20:00 +11°C° 0 mm 1 m/s 542 mmHg 78%
    21:00 +10°C° 0 mm 1 m/s 542 mmHg 79%
    22:00 +9°C° 0 mm 0 m/s 542 mmHg 80%
    23:00 +10°C° 0 mm 1 m/s 542 mmHg 80%

    Mâine, 29 Mai, Vineri

    Timp Temperatura Precipitaţii Vânt Presiune Umiditate
    00:00 +9°C° 0 mm 1 m/s 542 mmHg 80%
    01:00 +9°C° 0 mm 1 m/s 542 mmHg 79%
    02:00 +9°C° 0 mm 1 m/s 542 mmHg 80%
    03:00 +8°C° 0 mm 0 m/s 541 mmHg 80%
    04:00 +8°C° 0 mm 0 m/s 541 mmHg 81%
    05:00 +8°C° 0 mm 0 m/s 542 mmHg 79%
    06:00 +10°C° 0 mm 1 m/s 543 mmHg 78%
    07:00 +11°C° 0 mm 1 m/s 543 mmHg 76%
    08:00 +13°C° 0 mm 1 m/s 544 mmHg 69%
    09:00 +15°C° 0 mm 1 m/s 545 mmHg 62%
    10:00 +18°C° 0 mm 1 m/s 546 mmHg 55%
    11:00 +18°C° 0 mm 2 m/s 546 mmHg 52%
    12:00 +19°C° 0 mm 2 m/s 546 mmHg 49%
    13:00 +20°C° 0 mm 3 m/s 546 mmHg 46%
    14:00 +20°C° 0.1 mm 3 m/s 546 mmHg 48%
    15:00 +19°C° 0.1 mm 3 m/s 545 mmHg 49%
    16:00 +19°C° 0.1 mm 3 m/s 545 mmHg 51%
    17:00 +16°C° 0 mm 2 m/s 544 mmHg 62%
    18:00 +14°C° 0 mm 1 m/s 543 mmHg 72%
    19:00 +11°C° 0 mm 1 m/s 542 mmHg 82%
    20:00 +11°C° 0 mm 1 m/s 542 mmHg 83%
    21:00 +10°C° 0 mm 1 m/s 542 mmHg 84%
    22:00 +9°C° 0 mm 0 m/s 542 mmHg 84%
    23:00 +8°C° 0 mm 0 m/s 542 mmHg 84%

    Poimâine, 30 Mai, Sâmbătă

    Timp Temperatura Precipitaţii Vânt Presiune Umiditate
    00:00 +8°C° 0 mm 0 m/s 542 mmHg 85%
    01:00 +8°C° 0 mm 0 m/s 542 mmHg 85%
    02:00 +8°C° 0 mm 0 m/s 542 mmHg 87%
    03:00 +8°C° 0 mm 0 m/s 542 mmHg 87%
    04:00 +8°C° 0 mm 0 m/s 542 mmHg 88%
    05:00 +9°C° 0 mm 0 m/s 543 mmHg 85%
    06:00 +9°C° 0 mm 0 m/s 543 mmHg 83%
    07:00 +9°C° 0 mm 0 m/s 544 mmHg 80%
    08:00 +11°C° 0 mm 0 m/s 544 mmHg 72%
    09:00 +14°C° 0 mm 1 m/s 545 mmHg 63%
    10:00 +16°C° 0 mm 1 m/s 546 mmHg 54%
    11:00 +18°C° 0 mm 1 m/s 546 mmHg 49%
    12:00 +18°C° 0 mm 2 m/s 546 mmHg 44%
    13:00 +20°C° 0 mm 3 m/s 546 mmHg 39%
    14:00 +19°C° 0 mm 3 m/s 545 mmHg 41%
    15:00 +19°C° 0 mm 2 m/s 545 mmHg 43%
    16:00 +18°C° 0 mm 2 m/s 544 mmHg 46%
    17:00 +16°C° 0 mm 2 m/s 543 mmHg 54%
    18:00 +13°C° 0 mm 2 m/s 543 mmHg 62%
    19:00 +11°C° 0 mm 1 m/s 542 mmHg 70%
    20:00 +11°C° 0 mm 1 m/s 542 mmHg 71%
    21:00 +10°C° 0 mm 1 m/s 542 mmHg 73%
    22:00 +9°C° 0 mm 0 m/s 543 mmHg 74%
    23:00 +8°C° 0 mm 0 m/s 542 mmHg 76%

    31 Mai, Duminică

    Timp Temperatura Precipitaţii Vânt Presiune Umiditate
    00:00 +8°C° 0 mm 0 m/s 542 mmHg 77%
    01:00 +7°C° 0 mm 0 m/s 542 mmHg 79%
    02:00 +7°C° 0 mm 0 m/s 542 mmHg 79%
    03:00 +7°C° 0 mm 0 m/s 542 mmHg 80%
    04:00 +8°C° 0 mm 1 m/s 541 mmHg 80%
    05:00 +8°C° 0 mm 1 m/s 542 mmHg 77%
    06:00 +9°C° 0 mm 1 m/s 543 mmHg 74%
    07:00 +10°C° 0 mm 1 m/s 544 mmHg 72%
    08:00 +12°C° 0 mm 1 m/s 545 mmHg 64%
    09:00 +14°C° 0 mm 1 m/s 546 mmHg 56%
    10:00 +18°C° 0 mm 1 m/s 547 mmHg 49%
    11:00 +18°C° 0 mm 2 m/s 547 mmHg 46%
    12:00 +19°C° 0 mm 2 m/s 546 mmHg 43%
    13:00 +20°C° 0 mm 3 m/s 546 mmHg 40%
    14:00 +19°C° 0 mm 3 m/s 546 mmHg 42%
    15:00 +19°C° 0 mm 2 m/s 545 mmHg 44%
    16:00 +19°C° 0 mm 2 m/s 544 mmHg 46%
    17:00 +16°C° 0 mm 2 m/s 544 mmHg 55%
    18:00 +14°C° 0 mm 1 m/s 543 mmHg 63%
    19:00 +11°C° 0 mm 1 m/s 542 mmHg 71%
    20:00 +11°C° 0 mm 1 m/s 542 mmHg 72%
    21:00 +10°C° 0 mm 0 m/s 543 mmHg 73%
    22:00 +9°C° 0 mm 0 m/s 543 mmHg 74%
    23:00 +9°C° 0 mm 0 m/s 543 mmHg 75%

    1 Iunie, Luni

    Timp Temperatura Precipitaţii Vânt Presiune Umiditate
    00:00 +9°C° 0 mm 0 m/s 543 mmHg 75%
    01:00 +8°C° 0 mm 0 m/s 543 mmHg 75%
    02:00 +8°C° 0 mm 0 m/s 542 mmHg 76%
    03:00 +8°C° 0 mm 0 m/s 542 mmHg 76%
    04:00 +8°C° 0 mm 1 m/s 542 mmHg 76%
    05:00 +9°C° 0 mm 1 m/s 543 mmHg 75%
    06:00 +10°C° 0 mm 1 m/s 543 mmHg 74%
    07:00 +10°C° 0 mm 1 m/s 544 mmHg 72%
    08:00 +13°C° 0 mm 1 m/s 545 mmHg 64%
    09:00 +15°C° 0 mm 1 m/s 546 mmHg 56%
    10:00 +18°C° 0 mm 1 m/s 547 mmHg 48%
    11:00 +18°C° 0 mm 2 m/s 547 mmHg 46%
    12:00 +19°C° 0 mm 2 m/s 546 mmHg 43%
    13:00 +20°C° 0 mm 3 m/s 546 mmHg 41%
    14:00 +20°C° 0 mm 2 m/s 546 mmHg 42%
    15:00 +20°C° 0 mm 2 m/s 545 mmHg 43%
    16:00 +19°C° 0 mm 2 m/s 545 mmHg 45%
    17:00 +17°C° 0 mm 2 m/s 544 mmHg 54%
    18:00 +15°C° 0 mm 1 m/s 543 mmHg 62%
    19:00 +12°C° 0 mm 1 m/s 543 mmHg 71%
    20:00 +12°C° 0 mm 1 m/s 543 mmHg 73%
    21:00 +10°C° 0 mm 0 m/s 543 mmHg 75%
    22:00 +9°C° 0 mm 0 m/s 543 mmHg 78%
    23:00 +9°C° 0 mm 0 m/s 543 mmHg 80%

    2 Iunie, Marţi

    Timp Temperatura Precipitaţii Vânt Presiune Umiditate
    00:00 +9°C° 0 mm 0 m/s 543 mmHg 82%
    01:00 +8°C° 0 mm 0 m/s 542 mmHg 84%
    02:00 +8°C° 0 mm 0 m/s 542 mmHg 83%
    03:00 +8°C° 0 mm 0 m/s 542 mmHg 83%
    04:00 +8°C° 0 mm 0 m/s 542 mmHg 83%
    05:00 +9°C° 0 mm 0 m/s 543 mmHg 81%
    06:00 +10°C° 0 mm 1 m/s 543 mmHg 80%
    07:00 +11°C° 0 mm 1 m/s 544 mmHg 79%
    08:00 +13°C° 0 mm 1 m/s 545 mmHg 72%
    09:00 +15°C° 0 mm 1 m/s 545 mmHg 65%
    10:00 +18°C° 0 mm 1 m/s 546 mmHg 59%
    11:00 +18°C° 0 mm 2 m/s 546 mmHg 55%
    12:00 +19°C° 0 mm 2 m/s 546 mmHg 52%
    13:00 +20°C° 0 mm 3 m/s 545 mmHg 48%
    14:00 +20°C° 0 mm 3 m/s 545 mmHg 49%
    15:00 +19°C° 0 mm 2 m/s 544 mmHg 51%
    16:00 +19°C° 0 mm 2 m/s 544 mmHg 52%
    17:00 +17°C° 0 mm 2 m/s 543 mmHg 64%
    18:00 +14°C° 0 mm 2 m/s 543 mmHg 76%
    19:00 +12°C° 0 mm 1 m/s 542 mmHg 87%
    20:00 +12°C° 0 mm 1 m/s 543 mmHg 89%
    21:00 +12°C° 0 mm 1 m/s 543 mmHg 91%
    22:00 +11°C° 0 mm 1 m/s 543 mmHg 93%
    23:00 +11°C° 0 mm 1 m/s 543 mmHg 93%
    Arată mai mult